Location: Oshawa
(43.9000°N, 78.8670°W)
Time: 17:04:15
(UTC-05:00)

PAYLOAD A - Visible Passes

Search period start: 23 November 2017 00:00
Search period end: 03 December 2017 00:00
Orbit: 692 x 832 km, 98.2° (Epoch: 23 November)

Date Brightness Start Highest point End Pass type
(mag) Time Alt. Az. Time Alt. Az. Time Alt. Az.
23 Nov 4.7 05:21:28 10° NNE 05:26:41 57° E 05:31:58 10° S visible
23 Nov 7.3 18:20:29 10° WSW 18:21:42 11° W 18:22:55 10° WNW visible
24 Nov 6.2 04:44:22 10° NE 04:48:50 27° E 04:53:21 10° SSE visible
24 Nov 4.5 06:22:55 10° N 06:27:52 43° WNW 06:32:56 10° SW visible
24 Nov 6.4 17:39:39 10° SSW 17:43:34 25° W 17:47:37 10° NW visible
25 Nov 7.2 04:08:35 10° ENE 04:10:47 12° E 04:13:00 10° ESE visible
25 Nov 4.1 05:45:01 10° NNE 05:50:21 88° WNW 05:55:46 10° SSW visible
26 Nov 5.3 05:07:34 10° NNE 05:12:38 44° E 05:17:47 10° S visible
26 Nov 5.0 06:46:56 10° N 06:51:21 28° WNW 06:55:50 10° WSW visible
26 Nov 7.0 18:04:39 10° SW 18:07:27 15° W 18:10:18 10° NW visible
27 Nov 6.6 04:30:45 10° NE 04:34:43 21° E 04:38:43 10° SE visible
27 Nov 4.2 06:08:45 10° N 06:13:57 56° WNW 06:19:14 10° SSW visible
27 Nov 5.8 17:25:04 10° SSW 17:29:25 34° W 17:33:56 10° NNW visible
28 Nov 4.4 05:31:01 10° NNE 05:36:22 71° ESE 05:41:47 10° S visible
29 Nov 5.8 04:53:45 10° NNE 04:58:35 33° E 05:03:27 10° SSE visible
29 Nov 4.7 06:32:39 10° N 06:37:29 35° WNW 06:42:22 10° SW visible
29 Nov 6.7 17:49:37 10° SW 17:53:15 21° W 17:56:59 10° NW visible
30 Nov 6.9 04:17:22 10° NE 04:20:35 16° E 04:23:49 10° SE visible
30 Nov 4.1 05:54:39 10° N 06:00:01 73° WNW 06:05:26 10° SSW visible
30 Nov 5.2 17:10:39 10° S 17:15:17 47° W 17:20:07 10° NNW visible
01 Dec 4.9 05:17:04 10° NNE 05:22:21 54° E 05:27:40 10° S visible
01 Dec 5.2 06:56:46 10° NNW 07:00:56 23° WNW 07:05:06 10° WSW visible
01 Dec 7.1 18:15:08 10° WSW 18:17:10 12° W 18:19:16 10° WNW visible
02 Dec 6.2 04:40:02 10° NE 04:44:29 26° E 04:48:58 10° SSE visible
02 Dec 4.4 06:18:28 10° N 06:23:35 46° WNW 06:28:45 10° SW visible
02 Dec 6.2 17:34:54 10° SSW 17:39:04 28° W 17:43:24 10° NW visible
